Weather History for KSNY - October, 2012

Change the Weather History Date:

Monday, October 8, 2012

  Actual Average Record
Temperature  
Mean Temperature 51 °F 53 °F  
Max Temperature 71 °F 68 °F 88 °F (1975)
Min Temperature 30 °F 38 °F 22 °F (2000)
Degree Days  
Heating Degree Days 14 12  
Month to date heating degree days 158 87  
Since 1 July heating degree days 274 227  
Cooling Degree Days 0 0  
Month to date cooling degree days 0 1  
Year to date cooling degree days 1165 827  
Moisture  
Dew Point 24 °F    
Average Humidity 46    
Maximum Humidity 78    
Minimum Humidity 14    
Precipitation  
Precipitation 0.00 in 0.04 in 0.79 in (1993)
Month to date precipitation 0.33 0.32  
Year to date precipitation 6.70 16.73  
Sea Level Pressure  
Sea Level Pressure 29.90 in    
Wind  
Wind Speed 11 mph (NW)    
Max Wind Speed 22 mph    
Max Gust Speed 28 mph    
Visibility 10 miles    
Events      
T = Trace of Precipitation, MM = Missing Value Source: NWS Daily Summary

Daily Weather History Graph

Daily Weather History Graph

Search for Another Location

Airport or City:

Trip Planner

Search our weather history database for the weather conditions in past years. The results will help you decide how hot, cold, wet, or windy it might be!

Date:

Astronomy

Oct. 08, 2012 Rise Set
Actual Time 6:56 AM MDT 6:21 PM MDT
Civil Twilight 6:28 AM MDT 6:48 PM MDT
Nautical Twilight 5:57 AM MDT 7:20 PM MDT
Astronomical Twilight 5:25 AM MDT 7:52 PM MDT
Moon No Moon Rise 2:15 PM MDT (10/8)
Length of Visible Light 12h 20m
Length of Day
11h 24m
Last Quarter, 46% of the Moon is Illuminated
Oct 8
Last Quarter
Oct 15
New
Oct 21
First Quarter
Oct 29
Full
Nov 6
Last Quarter

Hourly Weather History & Observations

Time (MDT) Temp. Windchill Dew Point Humidity Pressure Visibility Wind Dir Wind Speed Gust Speed Precip Events Conditions
12:53 AM 30.0 °F - 24.1 °F 79% 30.04 in 10.0 mi North - - N/A   Clear
1:53 AM 33.1 °F 25.5 °F 25.0 °F 72% 30.00 in 10.0 mi SW 9.2 mph - N/A   Clear
2:53 AM 34.0 °F 26.0 °F 24.1 °F 67% 29.98 in 10.0 mi WNW 10.4 mph - N/A   Clear
3:53 AM 33.1 °F 23.9 °F 23.0 °F 66% 29.96 in 10.0 mi West 12.7 mph - N/A   Clear
4:53 AM 32.0 °F 23.0 °F 23.0 °F 69% 29.96 in 10.0 mi WNW 11.5 mph - N/A   Clear
5:53 AM 32.0 °F 23.6 °F 23.0 °F 69% 29.96 in 10.0 mi West 10.4 mph - N/A   Clear
6:53 AM 32.0 °F 24.2 °F 21.9 °F 66% 30.01 in 10.0 mi West 9.2 mph - N/A   Clear
7:53 AM 37.0 °F 30.4 °F 25.0 °F 62% 30.02 in 10.0 mi West 9.2 mph - N/A   Clear
8:53 AM 46.0 °F 42.5 °F 28.0 °F 50% 30.00 in 10.0 mi WNW 6.9 mph - N/A   Clear
9:53 AM 55.0 °F - 25.0 °F 31% 29.97 in 10.0 mi West 13.8 mph - N/A   Clear
10:53 AM 60.1 °F - 21.0 °F 22% 29.92 in 10.0 mi NW 18.4 mph 23.0 mph N/A   Clear
11:53 AM 64.0 °F - 21.9 °F 20% 29.90 in 10.0 mi WNW 13.8 mph - N/A   Clear
12:53 PM 66.9 °F - 19.9 °F 17% 29.87 in 10.0 mi WNW 19.6 mph 27.6 mph N/A   Clear
1:53 PM 68.0 °F - 19.0 °F 15% 29.82 in 10.0 mi WNW 17.3 mph 23.0 mph N/A   Clear
2:53 PM 69.1 °F - 19.0 °F 15% 29.80 in 10.0 mi NW 4.6 mph - N/A   Clear
3:53 PM 69.1 °F - 19.0 °F 15% 29.79 in 10.0 mi NW 11.5 mph - N/A   Clear
4:53 PM 68.0 °F - 18.0 °F 15% 29.79 in 10.0 mi NNW 10.4 mph - N/A   Clear
5:53 PM 60.1 °F - 28.9 °F 31% 29.82 in 10.0 mi ENE 9.2 mph - N/A   Clear
6:53 PM 48.9 °F - 30.0 °F 48% 29.86 in 10.0 mi East 6.9 mph - N/A   Clear
8:53 PM 45.0 °F 43.5 °F 28.0 °F 52% 29.83 in 10.0 mi ENE 3.5 mph - N/A   Clear
9:53 PM 44.1 °F 39.5 °F 28.0 °F 53% 29.82 in 10.0 mi NE 8.1 mph - N/A   Clear
10:53 PM 45.0 °F 42.6 °F 28.9 °F 53% 29.79 in 10.0 mi East 4.6 mph - N/A   Clear
11:53 PM 45.0 °F 39.7 °F 28.0 °F 52% 29.78 in 10.0 mi NE 10.4 mph - N/A   Clear